Location: Theydon Bois
(51.6750°N, 0.1050°E)
Time: 08:51:16
(UTC+00:00)

ISS - Visible Passes

Search period start: 19 February 2019 00:00
Search period end: 01 March 2019 00:00
Orbit: 403 x 411 km, 51.6° (Epoch: 19 February)

Date Brightness Start Highest point End Pass type
(mag) Time Alt. Az. Time Alt. Az. Time Alt. Az.
22 Feb -0.6 06:25:33 10° SSE 06:26:41 11° SE 06:27:50 10° ESE visible
24 Feb -1.3 06:17:18 10° SSW 06:19:51 21° SE 06:22:24 10° E visible
25 Feb -1.0 05:26:45 10° S 05:28:33 14° SE 05:30:20 10° ESE visible
26 Feb -2.4 06:10:02 10° SW 06:13:04 36° SSE 06:16:07 10° E visible
27 Feb -1.9 05:19:12 12° SSW 05:21:39 25° SSE 05:24:25 10° E visible
28 Feb -1.5 04:29:55 16° SSE 04:30:17 17° SE 04:32:29 10° E visible
28 Feb -3.3 06:03:07 10° WSW 06:06:20 58° SSE 06:09:34 10° E visible
